Location: Brunsen
(51.8651°N, 9.8610°E)
Time: 21:56:16
(UTC+00:00)

CZ-2C R/B - Pass Details

Date: 12 August 2024
Orbit: 782 x 869 km, 98.3° (Epoch: 07 September)

Event Time Altitude Azimuth Distance (km) Brightness Sun altitude
Exits shadow 23:51:54 13° 116° (ESE) 2,249 4.7 -23.3°
Maximum altitude 23:55:56 30° 61° (ENE) 1,455 4.2 -23.2°
Drops below altitude 10° 00:00:36 10° 1° (N) 2,441 6.2 -23.1°
Sets 00:03:10 0° 351° (N) 3,364 7.1 -23.1°
